Regional Weather Roundup
Issued by NWS

Home | Current Version | Previous Version | Graphics & Text | Print | Product List | Glossary On
Versions: 1 2 3 4 5 6 7 8 9 10 11 12 13 14 15 16 17 18 19 20 21 22 23 24 25 26 27 28 29 30 31 32 33 34 35 36 37 38 39 40 41 42 43 44 45 46 47 48 49 50
000
ASUS43 KMKX 232200
RWRWI

WISCONSIN REGIONAL WEATHER ROUNDUP
NATIONAL WEATHER SERVICE MILWAUKEE/SULLIVAN WI
500 PM CDT TUE MAY 23 2017

NOTE: "FAIR" INDICATES FEW OR NO CLOUDS BELOW 12,000 FEET WITH NO
SIGNIFICANT WEATHER AND/OR OBSTRUCTIONS TO VISIBILITY.

WIZ001-002-006>008-014>016-023>028-232300-
NORTHWEST WISCONSIN

CITY           SKY/WX    TMP DP  RH WIND       PRES   REMARKS
SUPERIOR ARPT  NOT AVBL
ASHLAND        CLOUDY    48  45  89 NE13      29.89R
HAYWARD        CLOUDY    57  43  59 N13G23    29.83R
SIREN          CLOUDY    58  44  59 N12G21    29.83R
CUMBERLAND     CLOUDY    55  43  62 N9        29.81S
RICE LAKE      PTSUNNY   57  46  65 N10       29.81F
CHETEK         CLOUDY    55  47  72 CALM      29.80S
LADYSMITH      CLOUDY    58  46  64 NE9       29.81S
EAU CLAIRE     NOT AVBL
MENOMONIE      CLOUDY    57  46  66 N10       29.79S
NEW RICHMOND   CLOUDY    56  46  69 NE8       29.81S
OSCEOLA        PTSUNNY   61  45  54 NE14      29.83S
$$

WIZ003>005-009-010-017-018-232300-
NORTH CENTRAL WISCONSIN

CITY           SKY/WX    TMP DP  RH WIND       PRES   REMARKS
MANITOWISH WTR CLOUDY    53  44  73 N6        29.82R
ARBOR VITAE    CLOUDY    57  47  70 N6        29.80F
WOODRUFF       CLOUDY    57  47  70 N6        29.80F
RHINELANDER    CLOUDY    57  47  69 N5        29.79S
EAGLE RIVER    CLOUDY    56  42  58 NE12      29.80S
LAND O LAKES   CLOUDY    55  43  64 N9        29.83S
PHILLIPS       CLOUDY    56  44  63 NE7G17    29.80S
TOMAHAWK       CLOUDY    55  45  69 N5        29.79S
MEDFORD        CLOUDY    54  45  71 NE8       29.77S
MERRILL        CLOUDY    57  45  64 E9        29.78S
$$

WIZ029-030-035-036-043>047-232300-
CENTRAL WISCONSIN

CITY           SKY/WX    TMP DP  RH WIND       PRES   REMARKS
WAUSAU         CLOUDY    57  44  62 NE8       29.75S
MOSINEE        CLOUDY    55  46  71 NE13      29.77S
MARSHFIELD     CLOUDY    58  44  60 NE18      29.74S
STEVENS POINT  CLOUDY    55  44  67 E13       29.75F
WAUPACA        CLOUDY    56  47  70 NE7       29.76S
WAUTOMA        LGT RAIN  54  48  80 NE12      29.74
WISC RAPIDS    CLOUDY    57  47  69 E14       29.75S
CAMP DOUGLAS   NOT AVBL
$$

WIZ011>013-019>022-031-037>040-048>050-232300-
NORTHEAST WISCONSIN

CITY           SKY/WX    TMP DP  RH WIND       PRES   REMARKS
ANTIGO         CLOUDY    55  44  68 NE10      29.78F
SHAWANO        CLOUDY    55  47  74 E12       29.79S
OCONTO         CLOUDY    51  46  81 NE5       29.79S
STURGEON BAY   CLOUDY    54  44  69 NE7       29.78F
GREEN BAY      LGT RAIN  51  51 100 NE12      29.77F
MANITOWOC      NOT AVBL
APPLETON       LGT RAIN  52  50  93 NE14      29.73F
CLINTONVILLE   LGT RAIN  54  45  71 NE9       29.78S
OSHKOSH        CLOUDY    53  49  86 NE12      29.74S
$$

WIZ032>034-041-042-053>061-232300-
SOUTHWEST WISCONSIN

CITY           SKY/WX    TMP DP  RH WIND       PRES   REMARKS
LA CROSSE      LGT RAIN  58  51  78 N10       29.72S
SPARTA         LGT RAIN  54  53  97 N6        29.73R
VIROQUA        CLOUDY    55  53  95 MISG      29.71F
BOSCOBEL       CLOUDY    63  52  67 NW7       29.70S
PRAIRIE DU CHI PTSUNNY   61  47  60 W8        29.70F
PLATTEVILLE    CLOUDY    60  53  77 CALM      29.71S
$$

WIZ056-057-062-063-064-067-068-232300-
SOUTH CENTRAL WISCONSIN

CITY           SKY/WX    TMP DP  RH WIND       PRES   REMARKS
REEDSBURG      CLOUDY    62  51  66 S6        29.69S
BARABOO/DELLS  CLOUDY    62  49  64 SE6       29.69F
LONE ROCK      CLOUDY    62  52  69 SW10      29.69S
MINERAL POINT  CLOUDY    61  54  77 S6        29.71S
MADISON        CLOUDY    61  50  67 SW3       29.70R
MIDDLETON      CLOUDY    61  51  70 SW6       29.71R
WATERTOWN      TSTM      55  54  99 S8        29.71R
MONROE         RAIN      55  52  88 SW3       29.72S
JANESVILLE     LGT RAIN  55  55 100 W9        29.72R
$$

WIZ051-052-058>065-066-070>072-232300-
SOUTHEAST WISCONSIN

CITY           SKY/WX    TMP DP  RH WIND       PRES   REMARKS
MILWAUKEE      LGT RAIN  58  55  90 SE9       29.71F
WAUKESHA       RAIN      55  52  88 SE6       29.73S
MILWAUKEE/TIMM RAIN      57  52  82 SE5       29.73S
RACINE         CLOUDY    55  51  86 S13       29.74S
KENOSHA        LGT RAIN  60  54  80 S14       29.72S
FOND DU LAC    HVY RAIN  53  49  86 NE12      29.73S FOG
SHEBOYGAN      RAIN      49  49 100 NE8       29.74S FOG
WEST BEND      LGT RAIN  57  54  88 E7        29.71R
JUNEAU         TSTM      55  53  94 SE6       29.72R
$$

LSZ147-162-232300-
LAKE SUPERIOR

STATION/POSITION TIME  TEMP    WIND        PRES    WAVE
                       AIR SEA DIR/SP/G            HT/PER
                 (UTC) (F)     (DEG/KT/KT) (MB)    (FT/S)
W MID LAKE BUOY  2050   40 37   30/  8/  8 1012.6F   0
DEVILS ISLAND    2100   42      60/  9/ 11 1012.9R
PORT WING        2130   43      20/ 15/ 16 1012.2S
SAXON HARBOR     2130   42      20/  4/  5 1011.9S
$$

LMZ867-665-643>646-232300-
LAKE MICHIGAN

STATION/POSITION TIME  TEMP    WIND        PRES    WAVE
                       AIR SEA DIR/SP/G            HT/PER
                 (UTC) (F)     (DEG/KT/KT) (MB)    (FT/S)
CHAMBERS ISLAND  2140   50     360/  6/  9 1008.5S
N MID LAKE BUOY  2050   43 39  350/  4/  4 1009.7F   0
NORTHPORT PIER   2140   47     330/  4/  8 1008.8F
KEWAUNEE LAKESHO 2130   48      20/  8/ 12 1007.8F
SHEBOYGAN LAKESH 2100   45      10/ 14/ 17 1007.4F
PORT WASHINGTON  2130   47      50/ 12/ 15 1007.8S
ATWATER BUOY     2009   50     130/  8/ 10 1006.8F
MILWAUKEE LAKESH 2130   53     140/ 13/ 15   N/A
S MID LAKE BUOY  2050   48 45  110/  6/  8 1007.4F   0
KENOSHA   LAKESH 2100   51     180/ 11/ 14 1006.8
$$

TC  - TEMPERATURE IN CELSIUS
VSB - VISIBILITY IN STATUTE MILES
WCI - WIND CHILL INDEX
HX  - HEAT INDEX





USA.gov is the U.S. government's official web portal to all federal, state and local government web resources and services.